START_TIME,STEP,MOV.,M15,t_acc.,M20,t_acc.
1979-08-03 12:00:42.640 ,0,0,0.,24.0,0.,24.0
1979-08-03 12:01:06.640 ,1,1,0.,24.0,0.,24.0
1979-08-03 12:01:30.640 ,1,0,0.,24.0,0.,24.0
1979-08-03 12:01:54.640 ,2,1,0.,24.0,0.,24.0
1979-08-03 12:02:18.640 ,0,1,0.,24.0,0.,24.0
1979-08-03 12:02:42.640 ,3,1,0.,24.0,0.,24.0
1979-08-03 12:03:06.640 ,3,0,0.,24.0,0.,24.0
1979-08-03 12:03:30.640 ,4,1,0.,24.0,0.,24.0
1979-08-03 12:03:54.640 ,4,0,0.,24.0,0.,24.0
1979-08-03 12:04:18.640 ,5,1,0.,24.0,0.,24.0
1979-08-03 12:04:42.640 ,5,0,0.,24.0,0.,24.0
1979-08-03 12:05:06.640 ,6,1,0.,24.0,0.,24.0
1979-08-03 12:05:30.640 ,6,0,0.,24.0,0.,24.0
1979-08-03 12:05:54.640 ,7,1,0.,24.0,0.,24.0
1979-08-03 12:06:18.640 ,7,0,0.,24.0,0.,24.0
1979-08-03 12:06:42.640 ,7,1,0.,24.0,0.,24.0
1979-08-03 12:07:06.640 ,7,0,0.,24.0,0.,24.0
1979-08-03 12:07:30.640 ,6,1,0.,24.0,0.,24.0
1979-08-03 12:07:54.640 ,6,0,0.,24.0,0.,24.0
1979-08-03 12:08:18.640 ,5,1,0.,24.0,0.,24.0
1979-08-03 12:08:42.640 ,5,0,0.,24.0,0.,24.0
1979-08-03 12:09:06.640 ,4,1,0.,24.0,0.,24.0
1979-08-03 12:09:30.640 ,4,0,0.,24.0,0.,24.0
1979-08-03 12:09:54.640 ,3,1,0.,24.0,0.,24.0
1979-08-03 12:10:18.640 ,3,0,0.,24.0,0.,24.0
1979-08-03 12:10:42.640 ,2,1,0.,24.0,0.,24.0
1979-08-03 12:11:06.640 ,2,0,0.,24.0,0.,24.0
1979-08-03 12:11:30.640 ,1,1,0.,24.0,0.,24.0
1979-08-03 12:11:54.640 ,1,0,0.,24.0,0.,24.0
1979-08-03 12:12:18.640 ,0,1,0.,24.0,0.,24.0
1979-08-03 12:12:42.640 ,0,0,0.,24.0,0.,24.0
1979-08-03 12:13:06.640 ,0,1,0.,24.0,0.,24.0
1979-08-03 12:13:30.640 ,0,0,0.,24.0,0.,24.0
1979-08-03 12:13:54.640 ,1,1,0.,24.0,0.,24.0
1979-08-03 12:14:18.640 ,1,0,0.,24.0,0.,24.0
1979-08-03 12:14:42.640 ,2,1,0.,24.0,0.,24.0
1979-08-03 12:15:06.640 ,2,0,0.,24.0,0.,24.0
1979-08-03 12:15:30.640 ,3,1,0.,24.0,0.,24.0
1979-08-03 12:15:54.640 ,3,0,0.,24.0,0.,24.0
1979-08-03 12:16:18.640 ,4,1,0.,24.0,0.,24.0
1979-08-03 12:16:42.640 ,4,0,0.,24.0,0.,24.0
1979-08-03 12:17:06.640 ,5,1,0.,24.0,0.,24.0
1979-08-03 12:17:30.640 ,5,0,0.,24.0,0.,24.0
1979-08-03 12:17:54.640 ,6,1,0.,24.0,0.,24.0
1979-08-03 12:18:18.640 ,6,0,0.,24.0,0.,24.0
1979-08-03 12:18:42.640 ,7,0,0.,24.0,0.,24.0
1979-08-03 12:19:06.640 ,7,0,0.,24.0,0.,24.0
1979-08-03 12:19:30.640 ,3,1,0.,24.0,0.,24.0
1979-08-03 12:19:54.640 ,0,1,0.,24.0,0.,24.0
1979-08-03 12:20:18.640 ,4,1,0.,24.0,0.,24.0
1979-08-03 12:20:42.640 ,7,1,0.,24.0,0.,24.0
1979-08-03 12:21:06.640 ,3,1,0.,24.0,0.,24.0
1979-08-03 12:21:30.640 ,0,1,0.,24.0,0.,24.0
1979-08-03 12:21:54.640 ,4,1,0.,24.0,0.,24.0
1979-08-03 12:22:18.640 ,7,1,0.,24.0,0.,24.0
1979-08-03 12:22:42.640 ,3,1,0.,24.0,0.,24.0
1979-08-03 12:23:06.640 ,0,1,0.,24.0,0.,24.0
1979-08-03 12:23:30.640 ,4,1,0.,24.0,0.,24.0
1979-08-03 12:23:54.640 ,7,1,0.,24.0,0.,24.0
1979-08-03 12:24:18.640 ,3,1,0.,24.0,0.,24.0
1979-08-03 12:24:42.640 ,0,1,0.,24.0,0.,24.0
1979-08-03 12:25:06.640 ,4,1,0.,24.0,0.,24.0
1979-08-03 12:25:30.640 ,7,1,0.,24.0,0.,24.0
1979-08-03 12:25:54.640 ,3,1,0.,24.0,0.,24.0
1979-08-03 12:26:18.640 ,0,1,0.,24.0,0.,24.0
1979-08-03 12:26:42.640 ,4,1,0.,24.0,0.,24.0
1979-08-03 12:27:06.640 ,7,1,0.,24.0,0.,24.0
1979-08-03 12:27:30.640 ,3,1,0.,24.0,0.,24.0
1979-08-03 12:27:54.640 ,0,1,0.,24.0,0.,24.0
1979-08-03 12:28:18.640 ,4,1,0.,24.0,0.,24.0
1979-08-03 12:28:42.640 ,7,1,0.,24.0,0.,24.0
1979-08-03 12:29:06.640 ,3,1,0.,24.0,0.,24.0
1979-08-03 12:29:30.640 ,0,1,0.,24.0,0.,24.0
1979-08-03 12:29:54.640 ,0,0,0.,24.0,0.,24.0
1979-08-03 12:30:18.640 ,0,0,0.,24.0,0.,24.0
1979-08-03 12:30:42.640 ,5,1,0.,24.0,0.,24.0
1979-08-03 12:31:06.640 ,5,0,0.,24.0,0.,24.0
1979-08-03 12:31:30.640 ,4,1,0.,24.0,0.,24.0
1979-08-03 12:31:54.640 ,4,0,0.,24.0,0.,24.0
1979-08-03 12:32:18.640 ,3,1,0.,24.0,0.,24.0
1979-08-03 12:32:42.640 ,3,0,0.,24.0,0.,24.0
1979-08-03 12:33:06.640 ,2,1,0.,24.0,0.,24.0
1979-08-03 12:33:30.640 ,0,0,0.,24.0,0.,24.0
1979-08-03 12:34:18.040 ,0,0,,0,,0
1979-08-03 12:34:18.640 ,0,0,0.,24.0,0.,24.0
1979-08-03 12:34:42.640 ,0,1,0.,24.0,0.,24.0
1979-08-03 12:35:06.640 ,0,0,0.,24.0,0.,24.0
1979-08-03 12:35:30.640 ,0,1,0.,24.0,0.,24.0
1979-08-03 12:35:54.640 ,0,0,0.,24.0,0.,24.0
1979-08-03 12:36:18.640 ,1,1,0.,24.0,0.,24.0
1979-08-03 12:36:42.640 ,1,0,0.,24.0,0.,24.0
1979-08-03 12:37:06.640 ,2,1,0.,24.0,0.,24.0
1979-08-03 12:37:30.640 ,2,0,0.,24.0,0.,24.0
1979-08-03 12:37:54.640 ,3,1,0.,24.0,0.,24.0
1979-08-03 12:38:18.640 ,3,0,0.,24.0,0.,24.0
1979-08-03 12:38:42.640 ,4,1,0.,24.0,0.,24.0
1979-08-03 12:39:06.640 ,4,0,0.,24.0,0.,24.0
1979-08-03 12:39:30.640 ,5,1,0.,24.0,0.,24.0
1979-08-03 12:39:54.640 ,5,0,0.,24.0,0.,24.0
1979-08-03 12:40:18.640 ,6,1,0.,24.0,0.,24.0
1979-08-03 12:40:42.640 ,6,0,0.,24.0,0.,24.0
1979-08-03 12:41:06.640 ,7,1,0.,24.0,0.,24.0
1979-08-03 12:41:30.640 ,7,0,0.,24.0,0.,24.0
1979-08-03 12:41:54.640 ,7,1,0.,24.0,0.,24.0
1979-08-03 12:42:18.640 ,7,0,0.,24.0,0.,24.0
1979-08-03 12:42:42.640 ,6,1,0.,24.0,0.,24.0
1979-08-03 12:43:06.640 ,6,0,0.,24.0,0.,24.0
1979-08-03 12:43:30.640 ,5,1,0.,24.0,0.,24.0
1979-08-03 12:43:54.640 ,5,0,0.,24.0,0.,24.0
1979-08-03 12:44:18.640 ,4,1,0.,24.0,0.,24.0
1979-08-03 12:44:42.640 ,4,0,0.,24.0,0.,24.0
1979-08-03 12:45:06.640 ,3,1,0.,24.0,0.,24.0
1979-08-03 12:45:30.640 ,3,0,0.,24.0,0.,24.0
1979-08-03 12:45:54.640 ,2,1,0.,24.0,0.,24.0
1979-08-03 12:46:18.640 ,2,0,0.,24.0,0.,24.0
1979-08-03 12:46:42.640 ,1,1,0.,24.0,0.,24.0
1979-08-03 12:47:06.640 ,1,0,0.,24.0,0.,24.0
1979-08-03 12:47:30.640 ,0,1,0.,24.0,0.,24.0
1979-08-03 12:47:54.640 ,0,0,0.,24.0,0.,24.0
1979-08-03 12:48:18.640 ,0,1,0.,24.0,0.,24.0
1979-08-03 12:48:42.640 ,0,0,0.,24.0,0.,24.0
1979-08-03 12:49:06.640 ,1,1,0.,24.0,0.,24.0
1979-08-03 12:49:30.640 ,1,0,0.,24.0,0.,24.0
1979-08-03 12:49:54.640 ,2,1,0.,24.0,0.,24.0
1979-08-03 12:50:18.640 ,2,0,0.,24.0,0.,24.0
1979-08-03 12:50:42.640 ,3,1,0.,24.0,0.,24.0
1979-08-03 12:51:06.640 ,3,0,0.,24.0,0.,24.0
1979-08-03 12:51:30.640 ,4,1,0.,24.0,0.,24.0
1979-08-03 12:51:54.640 ,4,0,0.,24.0,0.,24.0
1979-08-03 12:52:18.640 ,5,1,0.,24.0,0.,24.0
1979-08-03 12:52:42.640 ,5,0,0.,24.0,0.,24.0
1979-08-03 12:53:06.640 ,6,1,0.,24.0,0.,24.0
1979-08-03 12:53:30.640 ,6,0,0.,24.0,0.,24.0
1979-08-03 12:53:54.640 ,7,1,0.,24.0,0.,24.0
1979-08-03 12:54:18.640 ,7,0,0.,24.0,0.,24.0
1979-08-03 12:54:42.640 ,7,1,0.,24.0,0.,24.0
1979-08-03 12:55:06.640 ,7,0,0.,24.0,0.,24.0
1979-08-03 12:55:30.640 ,6,1,0.,24.0,0.,24.0
1979-08-03 12:55:54.640 ,6,0,0.,24.0,0.,24.0
1979-08-03 12:56:18.640 ,5,1,0.,24.0,0.,24.0
1979-08-03 12:56:42.640 ,5,0,0.,24.0,0.,24.0
1979-08-03 12:57:06.640 ,4,1,0.,24.0,0.,24.0
1979-08-03 12:57:30.640 ,4,0,0.,24.0,0.,24.0
1979-08-03 12:57:54.640 ,3,1,0.,24.0,0.,24.0
1979-08-03 12:58:18.640 ,3,0,0.,24.0,0.,24.0
1979-08-03 12:58:42.640 ,2,1,0.,24.0,0.,24.0
1979-08-03 12:59:06.640 ,2,0,0.,24.0,0.,24.0
1979-08-03 12:59:30.640 ,1,1,0.,24.0,0.,24.0
1979-08-03 12:59:54.640 ,1,0,0.,24.0,0.,24.0
1979-08-03 13:00:18.640 ,0,1,0.,24.0,0.,24.0
1979-08-03 13:00:42.640 ,0,0,0.,24.0,0.,24.0
1979-08-03 13:01:06.640 ,0,1,0.,24.0,0.,24.0
1979-08-03 13:01:30.640 ,0,0,0.,24.0,0.,24.0
1979-08-03 13:01:54.640 ,1,1,0.,24.0,0.,24.0
1979-08-03 13:02:18.640 ,1,0,0.,24.0,0.,24.0
1979-08-03 13:02:42.640 ,2,1,0.,24.0,0.,24.0
1979-08-03 13:03:06.640 ,2,0,0.,24.0,0.,24.0
1979-08-03 13:03:30.640 ,3,1,0.,24.0,0.,24.0
1979-08-03 13:03:54.640 ,3,0,0.,24.0,0.,24.0
1979-08-03 13:04:18.640 ,4,1,0.,24.0,0.,24.0
1979-08-03 13:04:42.640 ,4,0,0.,24.0,0.,24.0
1979-08-03 13:05:06.640 ,5,1,0.,24.0,0.,24.0
1979-08-03 13:05:30.640 ,5,0,0.,24.0,0.,24.0
1979-08-03 13:05:54.640 ,6,1,0.,24.0,0.,24.0
1979-08-03 13:06:18.640 ,6,0,0.,24.0,0.,24.0
1979-08-03 13:06:42.640 ,7,0,0.,24.0,0.,24.0
1979-08-03 13:07:06.640 ,7,0,0.,24.0,0.,24.0
1979-08-03 13:07:30.640 ,3,1,0.,24.0,0.,24.0
1979-08-03 13:07:54.640 ,0,1,0.,24.0,0.,24.0
1979-08-03 13:08:18.640 ,4,1,0.,24.0,0.,24.0
1979-08-03 13:08:42.640 ,7,1,0.,24.0,0.,24.0
1979-08-03 13:09:06.640 ,3,1,0.,24.0,0.,24.0
1979-08-03 13:09:30.640 ,0,1,0.,24.0,0.,24.0
1979-08-03 13:09:54.640 ,4,1,0.,24.0,0.,24.0
1979-08-03 13:10:18.640 ,7,1,0.,24.0,0.,24.0
1979-08-03 13:10:42.640 ,3,1,0.,24.0,0.,24.0
1979-08-03 13:11:06.640 ,0,1,0.,24.0,0.,24.0
1979-08-03 13:11:30.640 ,4,1,0.,24.0,0.,24.0
1979-08-03 13:11:54.640 ,7,1,0.,24.0,0.,24.0
1979-08-03 13:12:18.640 ,3,1,0.,24.0,0.,24.0
1979-08-03 13:12:42.640 ,0,1,0.,24.0,0.,24.0
1979-08-03 13:13:06.640 ,4,1,0.,24.0,0.,24.0
1979-08-03 13:13:30.640 ,7,1,0.,24.0,0.,24.0
1979-08-03 13:13:54.640 ,3,1,0.,24.0,0.,24.0
1979-08-03 13:14:18.640 ,0,1,0.,24.0,0.,24.0
1979-08-03 13:14:42.640 ,4,1,0.,24.0,0.,24.0
1979-08-03 13:15:06.640 ,7,1,0.,24.0,0.,24.0
1979-08-03 13:15:30.640 ,3,1,0.,24.0,0.,24.0
1979-08-03 13:15:54.640 ,0,1,0.,24.0,0.,24.0
1979-08-03 13:16:18.640 ,4,1,0.,24.0,0.,24.0
1979-08-03 13:16:42.640 ,7,1,0.,24.0,0.,24.0
1979-08-03 13:17:06.640 ,3,1,0.,24.0,0.,24.0
1979-08-03 13:17:30.640 ,0,1,0.,24.0,0.,24.0
1979-08-03 13:17:54.640 ,0,0,0.,24.0,0.,24.0
1979-08-03 13:18:18.640 ,0,0,0.,24.0,0.,24.0
1979-08-03 13:18:42.640 ,5,1,0.,24.0,0.,24.0
1979-08-03 13:19:06.640 ,5,0,0.,24.0,0.,24.0
1979-08-03 13:19:30.640 ,4,1,0.,24.0,0.,24.0
1979-08-03 13:19:54.640 ,4,0,0.,24.0,0.,24.0
1979-08-03 13:20:18.640 ,0,0,0.,24.0,0.,24.0
1979-08-03 13:20:42.640 ,0,0,0.,24.0,0.,24.0
1979-08-03 13:21:06.640 ,2,1,0.,24.0,0.,24.0
1979-08-03 13:21:30.640 ,2,0,0.,24.0,0.,24.0
1979-08-03 13:21:54.640 ,1,1,0.,24.0,0.,24.0
1979-08-03 13:22:18.640 ,1,0,0.,24.0,0.,24.0
1979-08-03 13:22:42.640 ,0,1,0.,24.0,0.,24.0
1979-08-03 13:23:06.640 ,0,0,0.,24.0,0.,24.0
1979-08-03 13:23:30.640 ,0,1,0.,24.0,0.,24.0
1979-08-03 13:23:54.640 ,0,0,0.,24.0,0.,24.0
1979-08-03 13:24:18.640 ,1,1,0.,24.0,0.,24.0
1979-08-03 13:24:42.640 ,1,0,0.,24.0,0.,24.0
1979-08-03 13:25:06.640 ,2,1,0.,24.0,0.,24.0
1979-08-03 13:25:30.640 ,2,0,0.,24.0,0.,24.0
1979-08-03 13:25:54.640 ,3,1,0.,24.0,0.,24.0
1979-08-03 13:26:18.640 ,3,0,0.,24.0,0.,24.0
1979-08-03 13:26:42.640 ,4,1,0.,24.0,0.,24.0
1979-08-03 13:27:06.640 ,4,0,0.,24.0,0.,24.0
1979-08-03 13:27:30.640 ,5,1,0.,24.0,0.,24.0
1979-08-03 13:27:54.640 ,5,0,0.,24.0,0.,24.0
1979-08-03 13:28:18.640 ,6,1,0.,24.0,0.,24.0
1979-08-03 13:28:42.640 ,6,0,0.,24.0,0.,24.0
1979-08-03 13:29:06.640 ,7,1,0.,24.0,0.,24.0
1979-08-03 13:29:30.640 ,7,0,0.,24.0,0.,24.0
1979-08-03 13:29:54.640 ,7,1,0.,24.0,0.,24.0
1979-08-03 13:30:18.640 ,7,0,0.,24.0,0.,24.0
1979-08-03 13:30:42.640 ,6,1,0.,24.0,0.,24.0
1979-08-03 13:31:06.640 ,6,0,0.,24.0,0.,24.0
1979-08-03 13:31:30.640 ,5,1,0.,24.0,0.,24.0
1979-08-03 13:31:54.640 ,5,0,0.,24.0,0.,24.0
1979-08-03 13:32:18.640 ,4,1,0.,24.0,0.,24.0
1979-08-03 13:32:42.640 ,4,0,0.,24.0,0.,24.0
1979-08-03 13:33:06.640 ,3,1,0.,24.0,0.,24.0
1979-08-03 13:33:30.640 ,3,0,0.,24.0,0.,24.0
1979-08-03 13:33:54.640 ,2,1,0.,24.0,0.,24.0
1979-08-03 13:34:18.640 ,2,0,0.,24.0,0.,24.0
1979-08-03 13:34:42.640 ,1,1,0.,24.0,0.,24.0
1979-08-03 13:35:06.640 ,1,0,0.,24.0,0.,24.0
1979-08-03 13:35:30.640 ,0,1,0.,24.0,0.,24.0
1979-08-03 13:35:54.640 ,0,0,0.,24.0,0.,24.0
1979-08-03 13:36:18.640 ,0,1,0.,24.0,0.,24.0
1979-08-03 13:36:42.640 ,0,0,0.,24.0,0.,24.0
1979-08-03 13:37:06.640 ,1,1,0.,24.0,0.,24.0
1979-08-03 13:37:30.640 ,1,0,0.,24.0,0.,24.0
1979-08-03 13:37:54.640 ,2,1,0.,24.0,0.,24.0
1979-08-03 13:38:18.640 ,2,0,0.,24.0,0.,24.0
1979-08-03 13:38:42.640 ,3,1,0.,24.0,0.,24.0
1979-08-03 13:39:06.640 ,3,0,0.,24.0,0.,24.0
1979-08-03 13:39:30.640 ,4,1,0.,24.0,0.,24.0
1979-08-03 13:39:54.640 ,4,0,0.,24.0,0.,24.0
1979-08-03 13:40:18.640 ,5,1,0.,24.0,0.,24.0
1979-08-03 13:40:42.640 ,5,0,0.,24.0,0.,24.0
1979-08-03 13:41:06.640 ,6,1,0.,24.0,0.,24.0
1979-08-03 13:41:30.640 ,6,0,0.,24.0,0.,24.0
1979-08-03 13:41:54.640 ,7,1,0.,24.0,0.,24.0
1979-08-03 13:42:18.640 ,7,0,0.,24.0,0.,24.0
1979-08-03 13:42:42.640 ,7,1,0.,24.0,0.,24.0
1979-08-03 13:43:06.640 ,7,0,0.,24.0,0.,24.0
1979-08-03 13:43:30.640 ,6,1,0.,24.0,0.,24.0
1979-08-03 13:43:54.640 ,6,0,0.,24.0,0.,24.0
1979-08-03 13:44:18.640 ,5,1,0.,24.0,0.,24.0
1979-08-03 13:44:42.640 ,5,0,0.,24.0,0.,24.0
1979-08-03 13:45:06.640 ,4,1,0.,24.0,0.,24.0
1979-08-03 13:45:30.640 ,4,0,0.,24.0,0.,24.0
1979-08-03 13:45:54.640 ,3,1,0.,24.0,0.,24.0
1979-08-03 13:46:18.640 ,3,0,0.,24.0,0.,24.0
1979-08-03 13:46:42.640 ,2,1,0.,24.0,0.,24.0
1979-08-03 13:47:06.640 ,2,0,0.,24.0,0.,24.0
1979-08-03 13:47:30.640 ,1,1,0.,24.0,0.,24.0
1979-08-03 13:47:54.640 ,1,0,0.,24.0,0.,24.0
1979-08-03 13:48:18.640 ,0,1,0.,24.0,0.,24.0
1979-08-03 13:48:42.640 ,0,0,0.,24.0,0.,24.0
1979-08-03 13:49:06.640 ,0,1,0.,24.0,0.,24.0
1979-08-03 13:49:30.640 ,0,0,0.,24.0,0.,24.0
1979-08-03 13:49:54.640 ,1,1,0.,24.0,0.,24.0
1979-08-03 13:50:18.640 ,1,0,0.,24.0,0.,24.0
1979-08-03 13:50:42.640 ,2,1,0.,24.0,0.,24.0
1979-08-03 13:51:06.640 ,2,0,0.,24.0,0.,24.0
1979-08-03 13:51:30.640 ,3,1,0.,24.0,0.,24.0
1979-08-03 13:51:54.640 ,3,0,0.,24.0,0.,24.0
1979-08-03 13:52:18.640 ,4,1,0.,24.0,0.,24.0
1979-08-03 13:52:42.640 ,4,0,0.,24.0,0.,24.0
1979-08-03 13:53:06.640 ,5,1,0.,24.0,0.,24.0
1979-08-03 13:53:30.640 ,5,0,0.,24.0,0.,24.0
1979-08-03 13:53:54.640 ,6,1,0.,24.0,0.,24.0
1979-08-03 13:54:18.640 ,6,0,0.,24.0,0.,24.0
1979-08-03 13:54:42.640 ,7,0,0.,24.0,0.,24.0
1979-08-03 13:55:06.640 ,7,0,0.,24.0,0.,24.0
1979-08-03 13:55:30.640 ,3,1,0.,24.0,0.,24.0
1979-08-03 13:55:54.640 ,0,1,0.,24.0,0.,24.0
1979-08-03 13:56:18.640 ,4,1,0.,24.0,0.,24.0
1979-08-03 13:56:42.640 ,7,1,0.,24.0,0.,24.0
1979-08-03 13:57:06.640 ,3,1,0.,24.0,0.,24.0
1979-08-03 13:57:30.640 ,0,1,0.,24.0,0.,24.0
1979-08-03 13:57:54.640 ,4,1,0.,24.0,0.,24.0
1979-08-03 13:58:18.640 ,7,1,0.,24.0,0.,24.0
1979-08-03 13:58:42.640 ,3,1,0.,24.0,0.,24.0
1979-08-03 13:59:06.640 ,0,1,0.,24.0,0.,24.0
1979-08-03 13:59:30.640 ,4,1,0.,24.0,0.,24.0
1979-08-03 13:59:54.640 ,7,1,0.,24.0,0.,24.0
1979-08-03 14:00:18.640 ,3,1,0.,24.0,0.,24.0
1979-08-03 14:00:42.640 ,0,1,0.,24.0,0.,24.0
1979-08-03 14:01:06.640 ,4,1,0.,24.0,0.,24.0
1979-08-03 14:01:30.640 ,0,0,,0,,0
1979-08-03 14:01:51.640 ,7,1,0.,24.0,0.,24.0
1979-08-03 14:01:54.640 ,3,1,0.,24.0,0.,24.0
1979-08-03 14:02:18.640 ,0,1,0.,24.0,0.,24.0
1979-08-03 14:02:42.640 ,4,1,0.,24.0,0.,24.0
1979-08-03 14:03:06.640 ,7,1,0.,24.0,0.,24.0
1979-08-03 14:03:30.640 ,3,1,0.,24.0,0.,24.0
1979-08-03 14:03:54.640 ,0,1,0.,24.0,0.,24.0
1979-08-03 14:04:18.640 ,4,1,1.,24.0,0.,24.0
1979-08-03 14:04:42.640 ,7,1,0.,24.0,0.,24.0
1979-08-03 14:05:06.640 ,3,1,0.,24.0,0.,24.0
1979-08-03 14:05:30.640 ,0,1,0.,24.0,0.,24.0
1979-08-03 14:05:54.640 ,0,0,0.,24.0,0.,24.0
1979-08-03 14:06:18.640 ,0,0,0.,24.0,0.,24.0
1979-08-03 14:06:42.640 ,5,1,0.,24.0,0.,24.0
1979-08-03 14:07:06.640 ,5,0,0.,24.0,0.,24.0
1979-08-03 14:07:30.640 ,4,1,0.,24.0,0.,24.0
1979-08-03 14:07:54.640 ,4,0,0.,24.0,0.,24.0
1979-08-03 14:08:18.640 ,3,1,0.,24.0,0.,24.0
1979-08-03 14:08:42.640 ,3,0,0.,24.0,0.,24.0
1979-08-03 14:09:06.640 ,2,1,0.,24.0,0.,24.0
1979-08-03 14:09:30.640 ,2,0,0.,24.0,0.,24.0
1979-08-03 14:09:54.640 ,1,1,0.,24.0,0.,24.0
1979-08-03 14:10:18.640 ,1,0,0.,24.0,0.,24.0
1979-08-03 14:10:42.640 ,0,1,0.,24.0,0.,24.0
1979-08-03 14:11:06.640 ,0,0,1.,24.0,0.,24.0
1979-08-03 14:11:30.640 ,0,1,0.,24.0,0.,24.0
1979-08-03 14:11:54.640 ,0,0,0.,24.0,0.,24.0
1979-08-03 14:12:18.640 ,1,1,0.,24.0,0.,24.0
1979-08-03 14:12:42.640 ,1,0,0.,24.0,0.,24.0
1979-08-03 14:13:06.640 ,2,1,0.,24.0,0.,24.0
1979-08-03 14:13:30.640 ,2,0,0.,24.0,0.,24.0
1979-08-03 14:13:54.640 ,3,1,0.,24.0,0.,24.0
1979-08-03 14:14:18.640 ,3,0,0.,24.0,0.,24.0
1979-08-03 14:14:42.640 ,4,1,0.,24.0,0.,24.0
1979-08-03 14:15:06.640 ,4,0,0.,24.0,0.,24.0
1979-08-03 14:15:30.640 ,5,1,0.,24.0,0.,24.0
1979-08-03 14:15:54.640 ,5,0,0.,24.0,0.,24.0
1979-08-03 14:16:18.640 ,6,1,0.,24.0,0.,24.0
1979-08-03 14:16:42.640 ,6,0,0.,24.0,0.,24.0
1979-08-03 14:17:06.640 ,7,1,0.,24.0,0.,24.0
1979-08-03 14:17:30.640 ,7,0,0.,24.0,0.,24.0
1979-08-03 14:17:54.640 ,7,1,0.,24.0,0.,24.0
1979-08-03 14:18:18.640 ,7,0,0.,24.0,0.,24.0
1979-08-03 14:18:42.640 ,6,1,0.,24.0,0.,24.0
1979-08-03 14:19:06.640 ,6,0,0.,24.0,0.,24.0
1979-08-03 14:19:30.640 ,5,1,0.,24.0,0.,24.0
1979-08-03 14:19:54.640 ,5,0,0.,24.0,0.,24.0
1979-08-03 14:20:18.640 ,4,1,0.,24.0,0.,24.0
1979-08-03 14:20:42.640 ,4,0,0.,24.0,0.,24.0
1979-08-03 14:21:06.640 ,3,1,0.,24.0,0.,24.0
1979-08-03 14:21:30.640 ,3,0,0.,24.0,0.,24.0
1979-08-03 14:21:54.640 ,2,1,0.,24.0,0.,24.0
1979-08-03 14:22:18.640 ,2,0,0.,24.0,0.,24.0
1979-08-03 14:22:42.640 ,1,1,0.,24.0,0.,24.0
1979-08-03 14:23:06.640 ,1,0,0.,24.0,0.,24.0
1979-08-03 14:23:30.640 ,0,1,0.,24.0,0.,24.0
1979-08-03 14:23:54.640 ,0,0,0.,24.0,0.,24.0
1979-08-03 14:24:18.640 ,0,1,0.,24.0,0.,24.0
1979-08-03 14:24:42.640 ,0,0,0.,24.0,0.,24.0
1979-08-03 14:25:06.640 ,1,1,0.,24.0,0.,24.0
1979-08-03 14:25:30.640 ,1,0,0.,24.0,0.,24.0
1979-08-03 14:25:54.640 ,2,1,0.,24.0,0.,24.0
1979-08-03 14:26:18.640 ,2,0,0.,24.0,0.,24.0
1979-08-03 14:26:42.640 ,3,1,0.,24.0,0.,24.0
1979-08-03 14:27:06.640 ,3,0,0.,24.0,0.,24.0
1979-08-03 14:27:30.640 ,4,1,0.,24.0,0.,24.0
1979-08-03 14:27:54.640 ,4,0,0.,24.0,0.,24.0
1979-08-03 14:28:18.640 ,5,1,0.,24.0,0.,24.0
1979-08-03 14:28:42.640 ,5,0,0.,24.0,0.,24.0
1979-08-03 14:29:06.640 ,6,1,0.,24.0,0.,24.0
1979-08-03 14:29:30.640 ,6,0,0.,24.0,0.,24.0
1979-08-03 14:29:54.640 ,7,1,0.,24.0,0.,24.0
1979-08-03 14:30:18.640 ,7,0,0.,24.0,0.,24.0
1979-08-03 14:30:42.640 ,7,1,0.,24.0,0.,24.0
1979-08-03 14:31:06.640 ,7,0,0.,24.0,0.,24.0
1979-08-03 14:31:30.640 ,6,1,0.,24.0,0.,24.0
1979-08-03 14:31:54.640 ,6,0,0.,24.0,0.,24.0
1979-08-03 14:32:18.640 ,5,1,0.,24.0,0.,24.0
1979-08-03 14:32:42.640 ,5,0,0.,24.0,0.,24.0
1979-08-03 14:33:06.640 ,4,1,0.,24.0,0.,24.0
1979-08-03 14:33:30.640 ,4,0,0.,24.0,0.,24.0
1979-08-03 14:33:54.630 ,3,1,0.,24.0,0.,24.0
1979-08-03 14:34:18.630 ,3,0,0.,24.0,0.,24.0
1979-08-03 14:34:42.630 ,2,1,0.,24.0,0.,24.0
1979-08-03 14:35:06.630 ,2,0,0.,24.0,0.,24.0
1979-08-03 14:35:30.630 ,1,1,0.,24.0,0.,24.0
1979-08-03 14:35:54.630 ,1,0,0.,24.0,0.,24.0
1979-08-03 14:36:18.630 ,0,1,0.,24.0,0.,24.0
1979-08-03 14:36:42.630 ,0,0,0.,24.0,0.,24.0
1979-08-03 14:37:06.630 ,0,1,0.,24.0,0.,24.0
1979-08-03 14:37:30.630 ,0,0,0.,24.0,0.,24.0
1979-08-03 14:37:54.630 ,1,1,0.,24.0,0.,24.0
1979-08-03 14:38:18.630 ,1,0,0.,24.0,0.,24.0
1979-08-03 14:38:42.630 ,2,1,0.,24.0,0.,24.0
1979-08-03 14:39:06.630 ,2,0,0.,24.0,0.,24.0
1979-08-03 14:39:30.630 ,3,1,0.,24.0,0.,24.0
1979-08-03 14:39:54.630 ,3,0,0.,24.0,0.,24.0
1979-08-03 14:40:18.630 ,4,1,0.,24.0,0.,24.0
1979-08-03 14:40:42.630 ,4,0,0.,24.0,0.,24.0
1979-08-03 14:41:06.630 ,5,1,0.,24.0,0.,24.0
1979-08-03 14:41:30.630 ,5,0,0.,24.0,0.,24.0
1979-08-03 14:41:54.630 ,6,1,0.,24.0,0.,24.0
1979-08-03 14:42:18.630 ,6,0,0.,24.0,0.,24.0
1979-08-03 14:42:42.630 ,7,0,0.,24.0,0.,24.0
1979-08-03 14:43:06.630 ,7,0,0.,24.0,0.,24.0
1979-08-03 14:43:30.630 ,3,1,0.,24.0,0.,24.0
1979-08-03 14:43:54.630 ,0,1,0.,24.0,0.,24.0
1979-08-03 14:44:18.630 ,4,1,0.,24.0,0.,24.0
1979-08-03 14:44:42.630 ,7,1,0.,24.0,0.,24.0
1979-08-03 14:45:06.630 ,3,1,0.,24.0,0.,24.0
1979-08-03 14:45:30.630 ,0,1,0.,24.0,0.,24.0
1979-08-03 14:45:54.630 ,4,1,0.,24.0,0.,24.0
1979-08-03 14:46:18.630 ,7,1,0.,24.0,0.,24.0
1979-08-03 14:46:42.630 ,3,1,0.,24.0,0.,24.0
1979-08-03 14:47:06.630 ,0,1,0.,24.0,0.,24.0
1979-08-03 14:47:30.630 ,4,1,0.,24.0,0.,24.0
1979-08-03 14:47:54.630 ,7,1,0.,24.0,0.,24.0
1979-08-03 14:48:18.630 ,3,1,0.,24.0,0.,24.0
1979-08-03 14:48:42.630 ,0,1,0.,24.0,0.,24.0
1979-08-03 14:49:06.630 ,4,1,0.,24.0,0.,24.0
1979-08-03 14:49:30.630 ,7,1,0.,24.0,0.,24.0
1979-08-03 14:49:54.630 ,3,1,0.,24.0,0.,24.0
1979-08-03 14:50:18.630 ,0,1,0.,24.0,0.,24.0
1979-08-03 14:50:42.630 ,4,1,0.,24.0,0.,24.0
1979-08-03 14:51:06.630 ,7,1,0.,24.0,0.,24.0
1979-08-03 14:51:30.630 ,3,1,0.,24.0,0.,24.0
1979-08-03 14:51:54.630 ,0,1,1.,24.0,0.,24.0
1979-08-03 14:52:18.630 ,4,1,0.,24.0,0.,24.0
1979-08-03 14:52:42.630 ,7,1,0.,24.0,0.,24.0
1979-08-03 14:53:06.630 ,3,1,0.,24.0,0.,24.0
1979-08-03 14:53:30.630 ,0,1,0.,24.0,0.,24.0
1979-08-03 14:53:54.630 ,0,0,0.,24.0,0.,24.0
1979-08-03 14:54:18.630 ,0,0,0.,24.0,0.,24.0
1979-08-03 14:54:42.630 ,5,1,0.,24.0,0.,24.0
1979-08-03 14:55:06.630 ,5,0,0.,24.0,0.,24.0
1979-08-03 14:55:30.630 ,4,1,0.,24.0,0.,24.0
1979-08-03 14:55:54.630 ,4,0,0.,24.0,0.,24.0
1979-08-03 14:56:18.630 ,3,1,0.,24.0,0.,24.0
1979-08-03 14:56:42.630 ,3,0,0.,24.0,0.,24.0
1979-08-03 14:57:06.630 ,2,1,0.,24.0,0.,24.0
1979-08-03 14:57:30.630 ,2,0,0.,24.0,0.,24.0
1979-08-03 14:57:54.630 ,1,1,0.,24.0,0.,24.0
1979-08-03 14:58:18.630 ,1,0,0.,24.0,0.,24.0
1979-08-03 14:58:42.630 ,0,1,0.,24.0,0.,24.0
1979-08-03 14:59:06.630 ,0,0,0.,24.0,0.,24.0
1979-08-03 14:59:30.630 ,0,1,0.,24.0,0.,24.0
1979-08-03 14:59:54.630 ,0,0,0.,24.0,0.,24.0
1979-08-03 15:00:18.630 ,1,1,0.,24.0,0.,24.0
